TimeEDT,TemperatureF,Dew PointF,Humidity,Sea Level PressureIn,VisibilityMPH,Wind Direction,Wind SpeedMPH,Gust SpeedMPH,PrecipitationIn,Events,Conditions,WindDirDegrees,DateUTC
12:54 AM,68.0,63.0,84,29.98,10.0,South,8.1,-,N/A,,Mostly Cloudy,190,2013-10-04 04:54:00
1:54 AM,68.0,63.0,84,29.98,9.0,SSW,9.2,-,N/A,,Mostly Cloudy,200,2013-10-04 05:54:00
2:54 AM,68.0,64.0,87,29.97,8.0,SSW,12.7,-,N/A,,Mostly Cloudy,200,2013-10-04 06:54:00
3:54 AM,69.1,64.0,84,29.99,9.0,SW,6.9,-,N/A,,Mostly Cloudy,220,2013-10-04 07:54:00
4:54 AM,66.9,64.0,90,29.99,7.0,SSW,5.8,-,N/A,,Overcast,210,2013-10-04 08:54:00
5:54 AM,68.0,64.0,87,30.00,8.0,SW,4.6,-,N/A,,Mostly Cloudy,220,2013-10-04 09:54:00
6:54 AM,66.9,64.0,90,30.02,7.0,SSW,3.5,-,N/A,,Mostly Cloudy,200,2013-10-04 10:54:00
7:54 AM,66.0,64.0,93,30.04,7.0,SSW,3.5,-,N/A,,Mostly Cloudy,200,2013-10-04 11:54:00
8:54 AM,69.1,64.9,87,30.03,8.0,South,9.2,-,N/A,,Mostly Cloudy,190,2013-10-04 12:54:00
9:54 AM,73.9,66.0,76,30.04,10.0,SW,12.7,-,N/A,,Mostly Cloudy,220,2013-10-04 13:54:00
10:54 AM,77.0,66.9,71,30.03,10.0,SW,11.5,16.1,N/A,,Scattered Clouds,230,2013-10-04 14:54:00
11:54 AM,80.1,66.9,64,30.03,10.0,WSW,9.2,-,N/A,,Scattered Clouds,240,2013-10-04 15:54:00
12:54 PM,81.0,66.9,62,30.03,10.0,SW,12.7,17.3,N/A,,Mostly Cloudy,220,2013-10-04 16:54:00
1:54 PM,80.1,66.0,62,30.01,10.0,WSW,11.5,18.4,N/A,,Mostly Cloudy,250,2013-10-04 17:54:00
2:54 PM,82.0,69.1,65,29.99,10.0,SSW,13.8,-,0.01,,Mostly Cloudy,210,2013-10-04 18:54:00
3:14 PM,82.4,66.2,58,30.00,10.0,SSW,11.5,-,N/A,Thunderstorm,Thunderstorm,210,2013-10-04 19:14:00
3:40 PM,82.4,66.2,58,30.00,10.0,SSW,3.5,-,0.00,,Mostly Cloudy,210,2013-10-04 19:40:00
3:48 PM,82.4,66.2,58,30.00,10.0,Variable,4.6,-,0.00,Thunderstorm,Thunderstorm,0,2013-10-04 19:48:00
3:54 PM,82.0,66.9,60,29.99,10.0,Calm,Calm,-,0.00,Thunderstorm,Thunderstorm,0,2013-10-04 19:54:00
4:54 PM,75.9,66.0,71,30.00,10.0,North,15.0,-,N/A,Thunderstorm,Thunderstorm,10,2013-10-04 20:54:00
5:54 PM,73.0,66.9,81,30.00,6.0,SE,5.8,-,0.00,Rain-Thunderstorm,Light Thunderstorms and Rain,140,2013-10-04 21:54:00
6:22 PM,71.6,69.8,94,30.00,10.0,East,5.8,-,0.05,,Scattered Clouds,90,2013-10-04 22:22:00
6:54 PM,71.1,68.0,90,30.00,8.0,East,3.5,-,0.05,,Scattered Clouds,80,2013-10-04 22:54:00
7:54 PM,70.0,66.9,90,30.01,10.0,ESE,6.9,-,N/A,,Mostly Cloudy,110,2013-10-04 23:54:00
8:54 PM,69.1,66.0,90,30.02,10.0,SE,8.1,-,N/A,,Mostly Cloudy,130,2013-10-05 00:54:00
10:54 PM,66.9,64.0,90,30.03,9.0,Calm,Calm,-,N/A,,Mostly Cloudy,0,2013-10-05 02:54:00
11:54 PM,66.0,64.0,93,30.03,8.0,Calm,Calm,-,N/A,,Mostly Cloudy,0,2013-10-05 03:54:00